Tracking 22438 objects as of 25-Feb-2021
HD Live streaming from Space Station
objects crossing your sky now

PROX-1 (NANOSAT-7)

Track PROX-1 (NANOSAT-7) now!
10-day predictions
PROX-1 (NANOSAT-7) is classified as:


NORAD ID: 44339
Int'l Code: 2019-036A
Perigee: 714.4 km
Apogee: 729.1 km
Inclination: 24.0 °
Period: 99.1 minutes
Semi major axis: 7092 km
RCS: Unknown
Launch date: June 25, 2019
Source: United States (US)
Launch site: AIR FORCE EASTERN TEST RANGE (AFETR)

Uplink (MHz): 437.345
Downlink (MHz): 2300.000
Beacon (MHz):
Mode:
Call sign:
Status: Unknown

aabbcc
Your satellite tracking list
Your tracking list is empty




NASA's NSSDC Master Catalog

Two Line Element Set (TLE):
1 44339U 19036A   21055.42819967  .00001207  00000-0  23489-3 0  9990
2 44339  24.0010 325.9554 0010404  27.0607 333.0425 14.53385879 88746
Source of the keplerian elements: AFSPC